OE9XVI-6 Weather Reports


time (UTC)temp
C
wind
direction
speed
KPH
gust
KPH
rain 1hr
cm
rain 24hr
cm
rain mn
cm
humidity
%
barometer
mb
20260504191655 12 322 4.8 4.8 0.00 0.00 0.00 45 1014.4
20260504190655 13 261 0.0 1.6 0.00 0.00 0.00 46 1014.4
20260504185655 13 120 1.6 6.4 0.00 0.00 0.00 45 1014.4
20260504184655 13 295 0.0 3.2 0.00 0.00 0.00 44 1014.4
20260504183655 13 85 0.0 0.0 0.00 0.00 0.00 44 1014.6
20260504182655 14 299 0.0 0.0 0.00 0.00 0.00 43 1014.7
20260504181655 14 236 0.0 3.2 0.00 0.00 0.00 45 1014.7
20260504180655 15 188 0.0 3.2 0.00 0.00 0.00 45 1014.8
20260504175656 15 208 0.0 8.0 0.00 0.00 0.00 44 1014.8
20260504174655 15 23 1.6 9.7 0.00 0.00 0.00 42 1015.0
20260504173656 15 268 0.0 8.0 0.00 0.00 0.00 42 1014.9
20260504172656 15 97 6.4 12.9 0.00 0.00 0.00 41 1015.0
20260504171656 15 175 4.8 12.9 0.00 0.00 0.00 42 1015.1
20260504170656 15 295 0.0 19.3 0.00 0.00 0.00 43 1015.3
20260504140656 21 57 0.0 17.7 0.00 0.00 0.00 29 1014.7
20260504130656 19 160 1.6 22.5 0.00 0.00 0.00 35 1014.7
20260504080701 15 132 0.0 1.6 0.00 0.00 0.00 58 1016.4
20260504050658 10 307 0.0 1.6 0.00 0.00 0.00 63 1016.0
20260504045657 10 150 0.0 0.0 0.00 0.00 0.00 65 1016.0
20260504044657 10 150 0.0 0.0 0.00 0.00 0.00 67 1016.1
20260504043703 10 150 0.0 0.0 0.00 0.00 0.00 67 1016.1
20260504042657 10 150 0.0 0.0 0.00 0.00 0.00 67 1016.1
20260504035700 10 130 0.0 0.0 0.00 0.00 0.00 68 1016.2
20260504033702 10 130 0.0 0.0 0.00 0.00 0.00 68 1016.3
20260504030657 9 112 0.0 1.6 0.00 0.00 0.00 72 1016.5
20260504024703 9 106 0.0 1.6 0.00 0.00 0.00 71 1016.7
20260504023657 9 106 0.0 1.6 0.00 0.00 0.00 71 1016.8
20260504022658 9 300 0.0 0.0 0.00 0.00 0.00 71 1016.8
20260504021702 9 300 0.0 0.0 0.00 0.00 0.00 71 1016.8
20260504015658 9 317 4.8 6.4 0.00 0.00 0.00 73 1016.9
20260504014700 9 153 0.0 0.0 0.00 0.00 0.00 76 1016.8
20260504013659 9 153 0.0 0.0 0.00 0.00 0.00 75 1016.9
20260504012658 9 153 0.0 0.0 0.00 0.00 0.00 75 1016.9
20260504011657 9 164 0.0 4.8 0.00 0.00 0.00 75 1016.9
20260504010701 9 164 3.2 4.8 0.00 0.00 0.00 74 1016.9
20260504005657 10 158 4.8 8.0 0.00 0.00 0.00 74 1017.0
20260504004702 10 146 4.8 6.4 0.00 0.00 0.00 73 1017.0
20260504003657 10 167 4.8 4.8 0.00 0.00 0.00 74 1017.0
20260504001658 10 150 3.2 6.4 0.00 0.00 0.00 73 1017.2
20260504000658 10 153 6.4 8.0 0.00 0.00 0.00 73 1017.4
20260503234701 10 142 3.2 8.0 0.00 0.00 0.00 73 1017.5
20260503233658 10 150 6.4 9.7 0.00 0.00 0.00 72 1017.5
20260503232702 10 144 8.0 9.7 0.00 0.00 0.00 71 1017.6
20260503230658 10 144 3.2 8.0 0.00 0.00 0.00 72 1017.7
20260503225658 10 136 6.4 8.0 0.00 0.00 0.00 73 1017.7
20260503224658 10 167 3.2 8.0 0.00 0.00 0.00 74 1017.7
20260503222658 10 47 0.0 3.2 0.00 0.00 0.00 76 1017.7
20260503220659 10 350 0.0 4.8 0.00 0.00 0.00 76 1017.6
20260503213658 11 313 6.4 6.4 0.00 0.00 0.00 73 1017.5
20260503210658 11 274 3.2 12.9 0.00 0.00 0.00 68 1017.4
20260503204658 12 16 1.6 8.0 0.00 0.00 0.00 66 1017.1
20260503202658 12 338 3.2 11.3 0.00 0.00 0.00 65 1017.1
20260503201658 12 33 6.4 6.4 0.00 0.00 0.00 63 1017.2
20260503200659 12 298 0.0 12.9 0.00 0.00 0.00 64 1017.1
20260503195658 13 201 3.2 9.7 0.00 0.00 0.00 59 1017.0
20260503194658 15 73 0.0 0.0 0.00 0.00 0.00 49 1016.9
20260503193703 15 292 3.2 3.2 0.00 0.00 0.00 48 1016.9
20260503192658 15 125 0.0 6.4 0.00 0.00 0.00 44 1016.8